Location: Dąbrówka
(52.2799°N, 15.8070°E)
Time: 10:30:06
(UTC+02:00)

PicSat - Visible Passes

Search period start: 26 June 2019 00:00
Search period end: 06 July 2019 00:00
Orbit: 488 x 499 km, 97.5° (Epoch: 25 June)

Date Brightness Start Highest point End Pass type
(mag) Time Alt. Az. Time Alt. Az. Time Alt. Az.
26 Jun ? 23:24:32 10° SW 23:27:13 19° W 23:29:56 10° NW visible
27 Jun ? 23:02:06 10° SSW 23:05:24 31° W 23:08:44 10° NNW visible
28 Jun ? 22:40:02 10° S 22:43:38 53° W 22:47:16 10° NNW visible
29 Jun ? 22:18:15 10° SSE 22:21:57 88° ENE 22:25:39 10° NNW visible
30 Jun ? 23:31:48 10° SW 23:34:13 16° W 23:36:38 10° NW visible
01 Jul ? 23:09:13 10° SSW 23:12:21 26° W 23:15:32 10° NW visible
02 Jul ? 22:47:02 10° S 22:50:34 44° W 22:54:07 10° NNW visible
03 Jul ? 22:25:10 10° S 22:28:50 78° WSW 22:32:32 10° NNW visible
04 Jul ? 22:03:33 10° SSE 22:07:10 60° ENE 22:10:49 10° N visible
04 Jul ? 23:39:08 10° WSW 23:41:09 14° W 23:43:12 10° NW visible
05 Jul ? 23:16:19 10° SSW 23:19:17 23° W 23:22:16 10° NW visible
